• In Deutschland
  • Länderverzeichnis
  • Für 7 Tage
  • Wassertemperatur
  • Satellitenkarten
  • Wetterkarte
  • Widgets
  • user-avatar
    Anmelden

    Stündliche Wetter Wendelstein

    Heute, 20 Februar, Dienstag

    Zeit Temperatur Niederschläge Wind Luftdruck Luftfeuchtigkeit
    00:00 -3°C° 0 mm 0 m/S 724 mmHg 78%
    01:00 -3°C° 0 mm 0 m/S 724 mmHg 79%
    02:00 -3°C° 0 mm 0 m/S 724 mmHg 80%
    03:00 -4°C° 0 mm 0 m/S 724 mmHg 81%
    04:00 -4°C° 0 mm 0 m/S 724 mmHg 82%
    05:00 -4°C° 0 mm 0 m/S 724 mmHg 83%
    06:00 -4°C° 0 mm 0 m/S 724 mmHg 84%
    07:00 -4°C° 0 mm 0 m/S 724 mmHg 85%
    08:00 -2°C° 0 mm 1 m/S 724 mmHg 79%
    09:00 -1°C° 0 mm 1 m/S 724 mmHg 74%
    10:00 0°C° 0 mm 1 m/S 724 mmHg 69%
    11:00 +1°C° 0 mm 1 m/S 724 mmHg 65%
    12:00 +2°C° 0 mm 1 m/S 724 mmHg 62%
    13:00 +1°C° 0 mm 2 m/S 724 mmHg 58%
    14:00 +1°C° 0 mm 2 m/S 724 mmHg 59%
    15:00 +1°C° 0 mm 2 m/S 724 mmHg 61%
    16:00 +1°C° 0 mm 2 m/S 724 mmHg 62%
    17:00 -1°C° 0 mm 2 m/S 724 mmHg 69%
    18:00 -1°C° 0 mm 2 m/S 725 mmHg 75%
    19:00 -2°C° 0 mm 2 m/S 725 mmHg 81%
    20:00 -2°C° 0 mm 2 m/S 725 mmHg 84%
    21:00 -3°C° 0 mm 2 m/S 725 mmHg 87%
    22:00 -3°C° 0 mm 2 m/S 726 mmHg 90%
    23:00 -3°C° 0 mm 2 m/S 726 mmHg 89%

    Morgen, 21 Februar, Mittwoch

    Zeit Temperatur Niederschläge Wind Luftdruck Luftfeuchtigkeit
    00:00 -3°C° 0 mm 2 m/S 726 mmHg 88%
    01:00 -4°C° 0 mm 2 m/S 726 mmHg 87%
    02:00 -4°C° 0 mm 2 m/S 726 mmHg 85%
    03:00 -4°C° 0 mm 2 m/S 726 mmHg 84%
    04:00 -4°C° 0 mm 2 m/S 726 mmHg 82%
    05:00 -4°C° 0 mm 2 m/S 727 mmHg 81%
    06:00 -4°C° 0 mm 2 m/S 727 mmHg 80%
    07:00 -5°C° 0 mm 2 m/S 727 mmHg 78%
    08:00 -3°C° 0 mm 2 m/S 727 mmHg 71%
    09:00 -2°C° 0 mm 3 m/S 727 mmHg 64%
    10:00 -1°C° 0 mm 3 m/S 728 mmHg 57%
    11:00 0°C° 0 mm 3 m/S 727 mmHg 52%
    12:00 +1°C° 0 mm 3 m/S 727 mmHg 48%
    13:00 +2°C° 0 mm 3 m/S 727 mmHg 43%
    14:00 +1°C° 0 mm 4 m/S 727 mmHg 45%
    15:00 +1°C° 0 mm 4 m/S 727 mmHg 46%
    16:00 +1°C° 0 mm 4 m/S 726 mmHg 47%
    17:00 -1°C° 0 mm 4 m/S 727 mmHg 54%
    18:00 -1°C° 0 mm 3 m/S 727 mmHg 60%
    19:00 -4°C° 0 mm 3 m/S 727 mmHg 66%
    20:00 -4°C° 0 mm 3 m/S 727 mmHg 67%
    21:00 -4°C° 0 mm 3 m/S 727 mmHg 68%
    22:00 -5°C° 0 mm 3 m/S 727 mmHg 69%
    23:00 -5°C° 0 mm 3 m/S 727 mmHg 69%

    übermorgen, 22 Februar, Donnerstag

    Zeit Temperatur Niederschläge Wind Luftdruck Luftfeuchtigkeit
    00:00 -5°C° 0 mm 4 m/S 727 mmHg 69%
    01:00 -5°C° 0 mm 4 m/S 727 mmHg 70%
    02:00 -5°C° 0 mm 4 m/S 726 mmHg 70%
    03:00 -5°C° 0 mm 4 m/S 726 mmHg 70%
    04:00 -5°C° 0 mm 4 m/S 726 mmHg 71%
    05:00 -5°C° 0 mm 4 m/S 726 mmHg 71%
    06:00 -7°C° 0 mm 4 m/S 726 mmHg 72%
    07:00 -7°C° 0 mm 4 m/S 726 mmHg 72%
    08:00 -6°C° 0 mm 5 m/S 726 mmHg 68%
    09:00 -5°C° 0 mm 5 m/S 726 mmHg 64%
    10:00 -4°C° 0 mm 5 m/S 726 mmHg 59%
    11:00 -3°C° 0 mm 6 m/S 726 mmHg 56%
    12:00 -3°C° 0 mm 6 m/S 726 mmHg 52%
    13:00 -2°C° 0 mm 6 m/S 726 mmHg 49%
    14:00 -2°C° 0 mm 6 m/S 725 mmHg 50%
    15:00 -2°C° 0 mm 6 m/S 725 mmHg 51%
    16:00 -2°C° 0 mm 6 m/S 725 mmHg 51%
    17:00 -2°C° 0 mm 5 m/S 725 mmHg 55%
    18:00 -4°C° 0 mm 5 m/S 725 mmHg 58%
    19:00 -4°C° 0 mm 4 m/S 725 mmHg 62%
    20:00 -4°C° 0 mm 4 m/S 725 mmHg 62%
    21:00 -5°C° 0 mm 4 m/S 726 mmHg 62%
    22:00 -5°C° 0 mm 4 m/S 726 mmHg 62%
    23:00 -5°C° 0 mm 4 m/S 726 mmHg 62%

    23 Februar, Freitag

    Zeit Temperatur Niederschläge Wind Luftdruck Luftfeuchtigkeit
    00:00 -5°C° 0 mm 4 m/S 726 mmHg 62%
    01:00 -5°C° 0 mm 4 m/S 726 mmHg 62%
    02:00 -7°C° 0 mm 4 m/S 726 mmHg 61%
    03:00 -7°C° 0 mm 4 m/S 726 mmHg 61%
    04:00 -7°C° 0 mm 4 m/S 726 mmHg 60%
    05:00 -7°C° 0 mm 4 m/S 726 mmHg 60%
    06:00 -7°C° 0 mm 4 m/S 726 mmHg 60%
    07:00 -7°C° 0 mm 4 m/S 726 mmHg 60%
    08:00 -7°C° 0 mm 4 m/S 727 mmHg 56%
    09:00 -6°C° 0 mm 5 m/S 727 mmHg 52%
    10:00 -5°C° 0 mm 5 m/S 727 mmHg 48%
    11:00 -4°C° 0 mm 5 m/S 727 mmHg 45%
    12:00 -2°C° 0 mm 5 m/S 728 mmHg 41%
    13:00 -1°C° 0 mm 5 m/S 728 mmHg 38%
    14:00 -1°C° 0 mm 5 m/S 728 mmHg 38%
    15:00 -1°C° 0 mm 5 m/S 728 mmHg 38%
    16:00 -1°C° 0 mm 5 m/S 728 mmHg 38%
    17:00 -2°C° 0 mm 5 m/S 728 mmHg 41%
    18:00 -3°C° 0 mm 4 m/S 728 mmHg 45%
    19:00 -5°C° 0 mm 4 m/S 728 mmHg 48%
    20:00 -5°C° 0 mm 4 m/S 729 mmHg 49%
    21:00 -5°C° 0 mm 4 m/S 729 mmHg 49%
    22:00 -5°C° 0 mm 4 m/S 729 mmHg 50%
    23:00 -7°C° 0 mm 5 m/S 729 mmHg 50%

    24 Februar, Samstag

    Zeit Temperatur Niederschläge Wind Luftdruck Luftfeuchtigkeit
    00:00 -7°C° 0 mm 5 m/S 729 mmHg 50%
    01:00 -7°C° 0 mm 5 m/S 729 mmHg 50%
    02:00 -7°C° 0 mm 5 m/S 729 mmHg 50%
    03:00 -7°C° 0 mm 5 m/S 729 mmHg 49%
    04:00 -8°C° 0 mm 5 m/S 729 mmHg 49%
    05:00 -8°C° 0 mm 5 m/S 729 mmHg 48%
    06:00 -8°C° 0 mm 5 m/S 729 mmHg 47%
    07:00 -8°C° 0 mm 5 m/S 729 mmHg 45%
    08:00 -7°C° 0 mm 5 m/S 730 mmHg 42%
    09:00 -6°C° 0 mm 6 m/S 730 mmHg 38%
    10:00 -6°C° 0 mm 6 m/S 730 mmHg 35%
    11:00 -5°C° 0 mm 6 m/S 730 mmHg 35%
    12:00 -4°C° 0 mm 6 m/S 730 mmHg 34%
    13:00 -3°C° 0 mm 6 m/S 730 mmHg 34%
    14:00 -4°C° 0 mm 6 m/S 730 mmHg 36%
    15:00 -4°C° 0 mm 6 m/S 729 mmHg 37%
    16:00 -4°C° 0 mm 6 m/S 729 mmHg 39%
    17:00 -5°C° 0 mm 6 m/S 729 mmHg 42%
    18:00 -6°C° 0 mm 6 m/S 729 mmHg 44%
    19:00 -7°C° 0 mm 5 m/S 730 mmHg 47%
    20:00 -7°C° 0 mm 5 m/S 730 mmHg 47%
    21:00 -8°C° 0 mm 5 m/S 730 mmHg 47%
    22:00 -8°C° 0 mm 5 m/S 730 mmHg 47%
    23:00 -10°C° 0 mm 5 m/S 730 mmHg 46%

    25 Februar, Sonntag

    Zeit Temperatur Niederschläge Wind Luftdruck Luftfeuchtigkeit
    00:00 -10°C° 0 mm 5 m/S 730 mmHg 44%
    01:00 -11°C° 0 mm 5 m/S 730 mmHg 43%
    02:00 -11°C° 0 mm 5 m/S 730 mmHg 43%
    03:00 -11°C° 0 mm 5 m/S 730 mmHg 43%
    04:00 -12°C° 0 mm 5 m/S 730 mmHg 43%
    05:00 -12°C° 0 mm 5 m/S 730 mmHg 45%
    06:00 -12°C° 0 mm 5 m/S 730 mmHg 46%
    07:00 -13°C° 0 mm 5 m/S 730 mmHg 48%
    08:00 -12°C° 0 mm 5 m/S 730 mmHg 46%
    09:00 -12°C° 0 mm 5 m/S 730 mmHg 44%
    10:00 -11°C° 0 mm 6 m/S 730 mmHg 43%
    11:00 -10°C° 0 mm 6 m/S 729 mmHg 40%
    12:00 -10°C° 0 mm 6 m/S 729 mmHg 38%
    13:00 -9°C° 0 mm 6 m/S 729 mmHg 36%
    14:00 -9°C° 0 mm 6 m/S 728 mmHg 36%
    15:00 -9°C° 0 mm 6 m/S 728 mmHg 37%
    16:00 -9°C° 0 mm 6 m/S 728 mmHg 37%
    17:00 -9°C° 0 mm 6 m/S 728 mmHg 40%
    18:00 -10°C° 0 mm 5 m/S 728 mmHg 43%
    19:00 -11°C° 0 mm 5 m/S 728 mmHg 46%
    20:00 -11°C° 0 mm 5 m/S 729 mmHg 45%
    21:00 -11°C° 0 mm 5 m/S 729 mmHg 44%
    22:00 -11°C° 0 mm 5 m/S 729 mmHg 44%
    23:00 -12°C° 0 mm 5 m/S 729 mmHg 44%
    Mehr zeigen